RH
44 45 46 46 46 46 46 46 47 47 49 51 55 60 64 68 71 75 78 82 85 86 86 84 83 82 80 77 74 73 73 74 74 74 74 74 73 74 75 75 76 76 77 76 76 77 76 73 70 66 62 58 55 53 49 45 44 47 54 60 62 63 61 57 52 48 46 44 40 41 40 28 24 28 23 17 21 21 20 23 23 22 23 22 23
46 46 47 48 48 48 47 48 48 48 50 52 55 60 64 68 72 77 80 85 88 90 91 90 90 89 86 82 79 77 76 76 76 76 76 76 76 76 76 77 78 78 79 79 78 78 77 75 72 68 63 61 57 52 49 44 40 42 44 47 56 61 56 52 52 48 45 44 40 37 35 29 28 30 24 19 21 22 23 24 24 25 26 26 27
47 48 49 49 49 49 49 49 50 50 51 53 56 60 66 71 76 81 85 89 92 93 94 95 95 94 92 88 84 81 79 79 78 78 78 77 77 78 78 79 80 80 80 80 80 81 80 77 74 72 68 63 58 51 47 43 37 37 38 36 40 45 42 41 46 48 47 45 41 37 31 28 30 29 23 21 23 23 23 26 28 28 28 29 30
49 50 51 51 51 51 52 52 52 52 51 52 55 58 64 71 77 85 90 93 96 96 96 96 97 98 97 94 91 87 83 81 80 80 79 79 79 79 80 82 82 82 81 81 82 82 81 80 78 77 72 63 57 50 44 42 38 35 36 33 32 32 29 29 35 44 50 48 42 37 32 29 30 30 26 24 25 26 26 27 29 30 31 32 32
52 53 53 53 53 53 54 54 54 52 53 54 56 61 69 76 82 89 94 96 98 99 98 97 98 101 100 99 99 95 89 85 82 81 80 79 80 80 81 83 83 83 83 81 83 84 85 86 83 78 73 65 58 51 45 42 39 37 37 36 35 33 29 29 33 43 51 49 42 36 33 33 32 32 33 29 28 32 34 34 33 33 33 34 34
55 56 55 55 56 56 55 56 55 55 57 59 62 70 80 87 90 93 96 98 99 98 97 97 98 101 100 100 101 99 96 91 86 84 82 81 82 82 82 83 84 85 85 84 86 88 88 88 86 81 75 69 61 53 49 46 42 40 38 38 37 33 30 33 34 37 45 46 40 35 34 34 32 33 36 34 34 42 46 44 43 44 43 40 39
58 58 58 57 57 57 57 57 57 58 61 64 68 75 84 91 95 97 98 99 98 97 96 97 98 99 100 99 100 100 100 98 92 87 85 83 83 83 83 85 87 87 89 88 88 90 90 89 88 85 80 74 67 58 53 50 46 43 40 38 38 35 37 45 41 38 46 47 39 35 35 35 34 35 38 39 43 51 55 54 53 54 54 50 46
60 59 59 59 58 58 58 59 59 61 63 65 69 75 83 90 95 98 99 99 98 97 96 97 98 98 99 99 100 100 100 100 98 93 89 87 87 86 86 86 89 91 91 91 90 90 90 89 88 88 85 80 73 63 57 53 49 47 45 43 42 41 47 59 57 48 49 47 40 37 37 36 36 37 41 44 45 48 56 63 62 59 59 59 57
61 60 60 60 60 59 59 60 61 61 62 62 66 72 80 88 93 96 98 99 98 98 97 97 98 98 99 99 99 100 100 100 101 99 95 93 90 88 87 87 89 92 93 94 93 91 90 90 89 89 89 85 77 67 61 58 53 53 54 52 49 48 54 64 64 56 51 46 42 41 40 39 38 40 44 47 50 53 61 68 67 63 63 62 59
62 61 62 61 61 61 60 61 62 62 62 63 64 68 74 82 89 92 96 98 98 98 97 96 97 97 98 97 97 97 98 99 100 101 99 97 95 93 93 93 94 96 97 97 96 93 92 93 91 90 89 88 84 76 69 65 61 59 61 60 56 58 64 70 69 62 57 52 47 46 45 43 45 49 52 55 61 67 69 70 68 67 67 62 55
63 62 63 62 62 62 62 63 64 64 64 65 66 69 71 77 83 86 90 94 95 96 95 93 93 94 96 96 95 95 95 96 98 100 99 98 99 99 99 99 99 99 100 100 98 95 94 95 94 92 91 89 88 85 79 74 70 66 63 62 62 65 72 77 79 77 71 62 57 55 53 53 58 62 61 65 72 77 79 79 77 74 71 65 56
65 65 65 65 65 66 67 68 67 67 68 69 70 73 74 76 79 82 84 88 90 91 91 90 91 93 95 95 94 93 93 93 96 99 99 98 100 100 100 100 100 99 100 100 100 99 97 97 97 97 96 92 90 90 87 83 79 75 70 67 67 70 73 75 80 86 86 78 72 68 63 62 70 76 76 80 87 92 92 88 82 78 75 71 62
68 69 70 70 71 72 73 74 73 73 74 75 76 78 79 80 81 82 84 88 92 90 89 90 91 93 95 95 93 91 90 92 96 98 98 98 100 101 100 100 100 100 100 100 100 100 99 99 100 99 99 98 95 93 92 90 87 83 79 74 72 74 77 76 76 84 95 96 89 84 81 77 77 82 91 97 98 100 100 91 85 84 82 77 69
73 74 75 76 76 77 79 78 78 79 79 80 82 83 85 85 86 87 89 93 97 96 94 95 94 93 94 97 97 93 89 90 95 99 99 100 100 100 100 100 100 100 100 100 100 100 100 100 100 100 99 100 100 98 96 95 93 89 85 81 78 77 80 81 78 79 90 100 98 96 95 86 78 83 95 101 99 100 100 96 93 93 86 73 62
77 77 77 78 78 80 82 81 81 84 85 87 89 88 88 90 91 94 96 97 100 101 100 100 98 95 94 97 100 98 92 91 96 100 100 100 100 100 100 100 100 100 100 100 99 99 100 100 100 100 100 100 100 101 100 98 97 94 91 87 83 82 82 81 79 76 80 90 97 99 96 86 83 91 98 100 101 101 99 93 84 77 69 59 54
78 78 78 78 79 80 82 83 85 88 92 96 96 92 92 95 97 99 100 97 98 100 100 100 101 100 97 97 100 101 96 95 98 100 101 100 100 100 100 100 100 100 100 99 97 96 96 99 100 101 101 101 100 100 101 101 101 99 95 91 89 88 86 83 83 83 79 81 89 93 92 90 93 99 101 100 98 94 92 86 72 61 58 56 55
78 79 79 79 80 81 83 86 90 94 98 100 100 97 98 100 100 101 100 98 98 98 99 99 99 100 101 100 100 101 100 98 96 97 100 101 100 100 100 100 100 100 100 100 99 98 95 93 96 100 102 101 101 101 101 100 102 101 96 94 93 92 89 86 88 89 84 85 93 96 96 98 100 101 99 92 82 77 78 74 63 59 59 55 53
79 79 80 79 80 80 84 90 96 100 101 101 101 101 101 101 101 101 101 101 100 99 100 101 99 97 98 97 96 100 102 97 94 98 100 100 100 101 99 100 100 99 100 100 100 101 97 89 90 97 100 99 99 101 102 99 101 101 97 97 97 94 90 88 90 90 84 85 93 97 99 101 101 97 90 77 71 75 76 68 62 63 63 57 56
81 80 80 79 79 80 85 90 94 98 98 98 98 100 101 102 102 101 100 100 101 101 100 101 99 96 95 93 91 96 102 99 95 99 102 100 100 101 100 100 101 99 99 99 98 100 100 94 90 90 93 95 97 100 101 100 100 101 99 101 101 94 88 90 92 91 85 83 88 95 97 97 96 93 84 74 76 83 81 74 72 73 69 64 61
82 80 80 79 78 81 86 87 87 89 91 91 91 93 98 101 99 97 96 98 102 101 99 101 101 98 97 97 91 89 96 102 100 99 101 100 100 100 100 100 100 100 99 99 97 97 99 99 95 89 87 92 98 101 101 100 100 100 100 103 102 93 89 92 92 89 87 87 92 98 97 94 95 96 89 81 83 87 86 84 83 81 78 73 66
81 79 79 78 79 81 83 84 85 86 87 89 89 88 93 97 95 95 98 101 101 95 91 98 101 96 93 96 95 89 90 99 102 99 100 101 100 100 100 100 100 101 100 99 98 97 96 97 99 96 93 96 100 101 101 100 100 100 101 101 96 91 92 96 95 93 93 95 98 101 101 99 100 99 92 86 88 91 91 91 88 84 80 74 68
80 80 79 78 79 80 79 81 83 83 84 86 86 85 88 90 91 97 101 101 100 97 95 99 100 95 89 89 93 94 93 95 100 101 100 101 100 100 100 100 100 100 100 99 96 95 94 96 99 100 99 100 100 100 101 101 100 100 100 98 93 91 94 98 99 100 100 101 101 101 101 102 100 95 90 89 93 95 94 93 93 88 80 69 64
81 80 79 78 78 78 78 80 81 80 79 79 78 79 82 82 85 95 102 101 100 99 99 98 96 94 91 88 90 95 96 94 98 101 101 100 101 101 100 100 100 100 101 100 98 97 97 98 100 100 98 98 99 100 100 100 100 100 100 99 98 97 97 99 101 101 100 100 101 100 100 101 96 89 86 90 95 97 95 94 94 91 83 69 56
82 81 79 78 77 77 78 79 78 78 77 75 73 74 76 78 84 94 100 101 99 96 93 92 92 91 91 90 90 93 95 94 96 99 101 100 101 101 100 100 100 100 100 100 99 100 100 99 100 101 99 98 100 100 100 100 100 100 100 100 99 99 100 100 100 100 100 100 100 99 97 96 92 87 87 93 98 97 94 93 91 89 83 69 53
83 81 80 79 78 77 78 79 79 78 76 75 77 78 77 81 91 98 100 98 96 93 91 90 90 90 90 90 90 92 95 97 98 99 100 100 100 101 100 100 100 99 101 101 101 101 101 100 100 101 100 100 101 100 100 100 98 97 96 97 98 99 100 100 100 100 100 98 97 95 91 91 92 91 91 96 98 96 93 92 89 86 80 68 54
84 82 81 81 79 78 78 77 76 77 76 76 81 86 89 92 98 100 100 100 97 93 93 92 90 89 89 89 91 95 97 97 97 97 99 100 100 100 100 100 98 96 96 98 99 100 101 101 101 100 100 100 100 100 101 100 97 95 93 96 100 101 100 100 100 100 97 93 91 89 87 90 94 94 94 97 98 98 97 94 90 85 77 66 56
83 82 81 80 80 78 77 75 73 75 78 78 79 82 86 96 104 102 99 100 99 96 96 93 89 89 92 93 95 97 96 93 93 96 99 100 100 100 100 100 97 93 91 92 94 95 97 101 101 99 99 99 99 100 100 100 100 99 97 99 102 101 100 99 99 99 96 92 91 89 90 95 98 96 97 100 100 99 97 94 89 82 72 65 59
81 79 77 77 77 76 76 76 74 75 78 81 85 86 82 83 92 97 98 102 102 100 99 97 92 94 97 97 98 98 94 92 94 98 100 100 100 101 100 98 96 94 93 96 97 95 96 100 101 99 100 101 100 100 100 100 101 101 100 101 101 99 97 96 96 98 99 98 97 96 97 100 100 99 100 101 100 99 96 93 89 80 68 64 62
79 75 72 72 72 73 78 80 79 77 76 74 76 83 84 80 77 77 83 94 99 99 101 101 99 100 100 98 100 101 98 96 98 100 101 100 99 101 102 100 98 97 97 100 101 95 91 92 92 91 93 95 94 94 95 96 99 100 100 101 100 98 97 96 95 95 98 100 100 99 100 100 100 101 101 98 96 96 96 94 87 75 66 64 62
76 72 70 69 69 73 79 82 82 85 86 79 69 65 69 76 79 76 73 76 82 92 100 101 98 101 103 102 101 101 100 100 100 100 100 100 99 101 102 101 100 100 100 102 99 89 84 84 83 82 84 86 86 86 86 88 92 94 97 100 101 100 99 97 94 94 98 101 101 100 100 100 99 99 98 95 93 93 95 94 85 72 65 64 61
73 71 69 68 68 71 75 78 79 83 88 91 88 78 67 66 75 80 78 72 71 80 91 92 89 91 97 101 103 102 101 102 102 101 101 100 100 101 100 100 102 103 102 99 92 83 81 83 82 80 82 83 83 84 86 88 90 91 93 96 97 98 98 96 95 97 100 100 100 100 100 100 99 99 97 95 94 93 91 88 80 71 66 64 60
72 70 69 68 68 68 70 72 76 81 83 86 93 96 90 79 73 73 74 73 73 77 82 83 82 82 87 95 101 104 101 97 98 102 102 99 100 101 101 102 103 99 95 91 86 81 82 84 84 84 86 84 84 87 88 90 92 94 96 93 89 90 94 96 98 101 102 100 100 100 100 100 100 99 98 97 95 92 87 82 76 70 67 64 62
72 70 69 68 67 68 70 70 73 81 87 86 88 95 100 97 90 83 74 69 72 79 85 88 86 84 85 90 94 97 95 90 92 98 102 102 102 100 98 99 97 93 91 91 88 85 86 86 85 88 90 89 89 91 91 92 94 96 98 96 93 93 96 98 99 101 102 101 100 100 100 100 100 98 96 95 93 89 85 81 75 69 66 62 60
73 72 71 69 68 70 70 70 73 77 81 85 91 97 99 98 101 101 92 82 78 80 84 89 90 87 88 91 92 92 90 88 88 92 98 101 99 93 92 95 94 93 95 96 92 90 91 90 88 90 93 94 94 95 95 96 97 98 98 99 99 99 100 99 99 100 101 101 100 99 100 100 100 98 95 93 91 88 86 82 75 68 64 62 61
76 75 73 70 70 70 69 71 73 75 77 84 92 97 95 94 97 101 101 99 96 91 88 89 88 87 87 90 91 90 89 88 88 89 93 96 93 90 91 93 92 91 93 94 94 95 96 95 94 95 97 98 98 99 99 99 100 100 99 99 100 100 100 100 100 101 101 100 99 99 100 100 101 100 98 96 96 94 90 84 77 71 68 67 66
79 78 76 73 72 71 70 72 73 76 79 84 87 89 90 95 98 99 99 101 101 99 96 93 89 88 90 93 93 91 88 87 88 89 91 92 92 93 95 96 95 95 95 95 97 99 98 99 99 99 99 100 99 100 100 100 100 100 100 100 100 101 100 100 100 100 100 100 100 101 101 101 100 100 99 99 98 96 91 85 78 72 70 71 72
81 80 79 77 74 73 73 72 73 76 79 82 84 86 89 94 98 100 100 100 100 99 99 97 95 93 95 97 96 92 88 87 89 91 92 92 93 98 101 102 101 100 98 98 100 100 99 100 101 100 99 100 100 100 100 100 100 100 100 100 100 100 100 100 100 100 100 100 100 101 101 101 100 99 100 100 97 92 85 81 76 71 68 70 73
80 81 81 80 77 78 79 77 74 75 78 83 90 92 89 90 95 99 100 100 100 99 99 99 99 97 97 99 99 97 95 95 96 97 98 98 100 103 104 102 102 101 101 102 104 103 102 102 102 102 101 99 99 100 100 100 101 101 101 101 100 100 101 100 99 100 100 100 100 100 101 100 100 100 100 100 98 91 81 72 68 68 70 72 73
79 80 82 81 80 82 84 83 79 75 76 81 89 91 89 89 95 99 99 99 99 99 98 99 99 99 101 102 102 101 100 99 99 101 103 103 104 104 102 101 102 104 104 105 104 103 103 103 104 105 104 101 100 100 100 101 102 102 102 102 100 100 100 100 100 100 100 100 100 100 100 101 101 100 100 100 97 87 74 64 63 68 73 75 76
80 81 82 83 84 86 88 87 85 81 78 79 83 87 90 92 93 95 97 98 99 99 99 99 99 99 100 103 104 103 101 100 100 104 106 105 104 105 103 102 104 105 106 106 105 102 100 101 101 103 103 101 100 100 100 101 103 104 103 103 102 101 101 101 101 100 99 101 103 101 101 104 104 100 100 101 93 78 63 58 62 69 74 77 80
78 79 80 82 84 86 88 89 89 88 85 82 82 85 88 90 90 92 96 97 97 99 99 99 99 96 92 94 100 104 103 103 105 107 107 106 107 107 105 103 103 103 104 105 104 102 101 101 100 100 100 100 100 100 100 100 102 103 103 103 103 102 101 101 103 102 100 101 103 103 104 105 102 100 102 99 85 68 60 61 66 71 76 80 84
77 78 79 79 81 82 84 86 89 89 88 86 84 85 87 87 88 91 94 94 94 96 96 97 98 93 86 84 88 94 100 105 108 107 106 105 105 106 107 105 104 103 104 105 104 103 103 102 101 101 102 102 102 102 101 101 100 100 101 102 102 102 101 102 104 103 101 101 103 105 105 104 103 105 103 89 70 60 61 65 70 75 79 83 87
74 76 78 78 79 80 81 82 84 86 89 90 89 87 87 86 87 90 92 91 91 92 93 94 95 92 85 81 82 86 94 102 106 106 106 104 103 105 107 107 105 105 105 105 105 106 105 104 104 104 105 105 105 104 104 103 101 101 101 100 100 100 101 101 101 102 104 106 106 105 104 104 104 102 90 71 59 60 66 71 75 80 84 87 91
69 71 72 74 75 77 79 81 82 83 84 86 87 88 88 89 90 91 92 92 90 91 93 94 93 89 86 84 84 87 92 97 100 101 102 103 104 106 107 106 105 105 104 104 105 106 107 106 106 104 104 104 104 104 104 104 104 104 104 102 101 101 101 100 101 102 105 105 104 105 106 105 96 82 68 60 62 68 73 77 81 84 88 92 95
67 67 68 69 70 72 74 79 82 83 82 82 82 84 88 93 95 94 93 94 94 94 95 94 91 89 89 88 88 88 90 92 94 96 98 101 103 105 105 104 103 103 103 103 102 101 102 103 104 102 101 101 101 102 104 104 105 105 105 103 103 104 103 102 103 104 105 105 105 104 100 91 78 67 62 65 71 76 78 80 82 86 92 96 98
70 70 70 71 71 71 72 75 79 82 83 84 84 84 87 93 95 94 93 95 96 96 96 95 93 91 90 90 90 90 89 90 91 93 94 94 95 96 97 98 99 100 101 100 98 96 97 100 101 101 100 100 100 102 104 104 104 104 102 101 100 99 97 96 97 98 98 98 95 89 80 71 66 64 67 71 75 77 78 79 82 89 96 98 97
73 75 75 75 76 75 75 75 77 78 80 83 85 85 85 88 90 90 91 91 92 94 96 97 96 94 92 92 93 92 89 88 89 90 89 89 88 88 89 92 96 99 99 96 94 95 97 99 99 99 100 100 100 100 100 100 100 99 98 97 94 89 84 82 81 80 79 77 74 71 68 66 66 69 72 75 77 77 78 80 86 93 97 98 99
77 79 80 80 81 81 80 80 79 80 80 81 82 82 83 85 86 88 89 90 90 91 93 96 98 98 97 96 96 94 90 87 87 87 87 87 86 86 88 91 94 95 94 92 90 91 93 94 95 96 96 96 95 95 95 95 95 93 91 89 85 80 76 73 71 69 68 68 67 67 67 67 69 72 74 75 77 79 82 85 89 92 95 97 100
77 81 83 84 84 85 85 85 83 83 83 83 81 80 82 84 85 87 89 90 89 89 90 92 95 98 99 98 97 95 91 87 85 84 85 85 86 88 90 91 91 89 88 87 86 86 87 89 90 91 91 91 91 90 90 90 88 86 83 81 78 75 72 71 69 68 68 68 67 67 67 67 70 72 73 75 78 81 84 87 88 90 94 98 101
77 81 84 85 85 86 86 86 85 85 86 87 86 85 85 86 86 87 88 88 88 88 88 88 90 93 96 98 98 96 93 89 87 85 85 86 87 89 90 89 87 84 82 83 84 84 84 85 86 87 87 86 85 84 84 83 82 81 79 77 75 73 71 70 69 68 67 65 64 65 66 68 70 72 74 77 80 82 83 86 89 92 96 99 100
77 81 84 84 85 86 87 87 88 88 89 90 92 92 91 90 89 88 87 86 87 88 86 85 85 87 90 93 96 97 95 91 89 88 88 87 87 87 87 87 86 83 80 80 81 82 82 83 83 83 83 82 80 79 79 78 77 77 76 74 72 71 70 68 67 65 62 61 62 63 65 67 69 72 75 78 80 81 83 86 89 92 97 100 101
Wind_Speed
9 8 8 8 9 10 11 12 13 14 15 15 16 16 17 17 17 18 19 19 19 19 19 19 20 21 21 21 20 20 20 20 20 20 20 21 20 20 20 19 19 18 18 18 17 16 16 16 15 15 14 14 13 14 14 13 12 11 11 11 9 10 10 9 9 9 9 7 6 6 9 12 12 11 13 14 13 13 12 12 13 12 13 15 15
9 9 8 9 9 10 11 12 13 13 14 15 16 16 17 17 18 18 19 19 18 18 19 19 19 20 21 21 21 20 20 20 20 20 21 21 21 21 20 20 20 19 19 19 18 17 17 17 16 16 15 15 15 15 15 14 13 12 12 11 10 10 11 11 9 9 9 8 7 6 7 10 9 10 14 15 14 13 13 12 12 11 12 14 15
9 9 8 9 9 10 10 11 12 13 14 14 15 16 16 17 17 18 18 18 18 18 18 18 19 20 21 21 20 20 20 20 20 20 21 21 21 21 21 20 20 20 20 20 19 18 19 18 17 17 16 16 16 15 15 15 14 13 13 13 12 12 13 13 11 10 9 9 8 6 7 8 8 9 14 15 15 14 13 12 12 11 11 13 14
8 8 8 8 9 9 10 11 11 12 14 14 15 16 16 17 17 17 17 17 17 17 17 17 18 19 20 20 20 20 20 20 20 20 21 21 21 21 21 21 21 20 20 20 19 19 19 19 19 17 16 17 16 16 16 15 14 13 13 13 13 13 13 12 12 11 9 9 9 8 8 8 8 9 12 14 15 15 14 13 12 11 10 12 14
8 8 8 8 9 9 10 11 12 13 13 14 15 16 16 16 16 16 17 17 17 17 17 17 18 19 19 20 20 21 20 20 20 20 21 21 21 21 21 21 21 21 21 20 20 20 20 20 20 18 17 17 17 16 17 16 15 14 14 12 12 12 12 11 11 11 10 10 10 9 9 8 8 8 9 12 14 14 14 15 14 13 13 14 15
7 8 8 8 9 10 11 11 13 13 14 14 15 15 16 16 16 15 16 16 16 16 16 17 18 18 19 19 20 21 21 21 21 21 21 21 21 21 21 21 21 21 21 21 20 21 21 20 20 19 18 18 17 17 17 17 16 15 15 13 13 13 12 11 11 11 10 10 10 10 9 8 8 6 7 11 13 11 12 15 14 13 15 17 17
7 8 8 8 9 10 11 12 13 14 14 15 15 15 15 15 15 15 15 15 15 15 16 16 17 18 19 19 19 20 21 22 22 21 21 21 21 21 21 22 22 21 22 22 21 21 21 20 20 19 19 18 18 18 17 17 16 16 15 15 14 13 11 10 10 11 10 9 9 9 8 7 7 6 7 10 10 7 8 12 11 10 13 16 18
7 8 8 9 10 10 11 12 12 13 13 14 14 14 15 15 14 14 14 14 15 15 15 16 17 18 19 19 19 19 21 22 22 22 22 21 21 22 22 22 22 22 22 22 21 21 21 20 20 20 19 19 18 18 18 17 17 16 16 15 14 13 10 8 8 9 8 8 9 8 7 7 7 6 7 8 7 6 7 10 11 11 12 14 14
7 7 8 9 10 10 11 11 11 11 12 13 14 14 14 15 14 14 14 14 14 15 15 16 18 18 18 18 18 19 21 22 21 21 21 21 22 22 22 21 21 22 22 23 22 21 20 19 19 19 19 19 18 18 18 17 17 16 15 15 14 12 10 8 7 7 7 8 8 7 7 7 5 5 6 6 6 8 9 10 11 12 13 14 11
6 7 8 8 9 9 10 10 11 12 12 13 14 14 14 15 15 14 14 14 14 15 16 16 17 18 17 17 18 19 20 21 20 19 20 20 21 22 22 21 21 21 21 22 22 21 19 18 18 17 17 18 18 18 17 17 17 16 15 15 14 13 11 9 7 7 7 7 7 6 6 7 5 4 6 6 7 8 9 9 11 12 14 14 10
6 7 7 8 9 10 10 11 11 12 13 13 14 15 15 15 15 15 15 15 15 15 16 16 16 17 17 17 17 18 19 19 18 17 17 17 18 21 23 23 23 23 22 22 22 21 19 18 16 15 16 17 17 18 17 17 17 17 16 16 15 14 12 10 8 7 7 7 7 6 6 7 5 4 6 7 7 7 8 9 10 11 11 10 9
6 7 8 8 9 10 11 11 12 12 13 13 14 15 15 15 15 16 15 15 15 15 16 16 17 16 16 17 17 17 17 17 16 15 15 15 15 19 22 24 24 25 24 24 23 22 21 20 19 18 17 16 16 16 17 17 18 18 17 17 16 16 15 12 10 8 7 7 7 7 7 6 6 5 5 6 8 8 9 9 9 9 10 10 11
6 7 8 9 10 10 11 12 13 13 13 14 14 15 15 15 15 15 15 15 15 16 16 16 17 16 17 17 17 17 17 16 15 14 13 13 14 16 19 21 22 23 23 24 23 23 23 23 23 23 21 18 17 16 16 17 17 18 18 18 18 18 17 15 13 11 10 9 9 8 7 7 7 5 4 6 9 9 8 9 9 9 10 11 13
7 8 9 10 10 11 11 12 13 14 14 14 15 15 15 16 15 15 15 15 15 16 17 17 17 17 17 17 17 18 17 16 15 14 13 13 14 16 17 18 20 21 21 21 22 22 22 22 23 24 23 21 21 19 17 17 17 18 18 19 20 19 18 18 17 15 14 13 13 12 10 9 9 8 7 8 10 9 9 10 11 11 14 18 21
8 9 9 10 11 12 12 13 13 14 14 15 16 16 16 16 16 15 15 15 14 14 15 16 17 17 17 16 16 17 17 16 15 14 14 14 15 16 17 16 17 18 19 20 21 21 21 22 23 23 23 22 22 21 19 17 17 18 19 19 20 20 20 20 19 18 17 17 18 16 13 11 10 9 9 9 10 11 11 14 16 17 19 21 22
9 10 11 11 12 13 14 14 14 14 14 15 16 16 17 17 16 14 14 15 14 13 14 15 16 16 16 16 15 15 16 16 15 14 14 15 15 15 15 15 15 15 16 18 19 20 20 20 21 22 22 22 22 22 21 19 17 18 19 19 20 20 20 20 19 18 18 18 18 16 13 11 10 9 8 8 10 12 13 14 15 14 14 15 16
10 11 12 12 13 13 14 14 14 13 13 14 15 16 16 15 14 13 14 15 15 14 14 14 15 15 15 15 14 13 14 15 15 14 14 14 15 14 14 14 14 14 14 15 16 18 19 19 20 21 22 21 20 21 22 21 19 18 18 19 19 19 20 20 18 16 17 17 16 15 13 12 12 12 13 13 15 15 13 10 9 8 9 10 11
12 12 12 13 13 13 13 13 13 12 12 13 14 15 15 14 13 13 13 14 14 13 12 12 13 14 14 14 13 12 13 14 14 13 14 14 14 13 13 13 14 14 13 13 13 15 18 19 19 20 21 20 19 20 21 22 21 19 19 18 19 19 19 18 16 14 15 17 16 15 16 17 17 16 16 16 15 13 11 10 9 8 9 10 10
12 12 13 13 12 12 12 12 12 11 12 13 14 14 14 13 12 13 13 12 11 11 10 11 12 13 12 13 13 12 12 13 13 13 14 14 14 13 12 12 12 13 12 12 12 12 14 17 18 18 19 18 17 18 19 20 21 20 18 17 17 18 17 16 14 12 14 17 16 15 16 17 16 15 15 14 12 11 11 12 11 9 9 10 11
12 12 12 12 12 11 11 11 11 12 12 13 14 14 13 12 13 13 13 11 9 10 10 10 12 12 11 11 12 12 12 13 12 13 14 14 15 14 13 12 12 12 12 13 13 12 12 13 14 15 17 16 16 16 17 18 21 21 18 16 16 16 15 13 12 11 12 14 14 14 14 14 13 13 13 12 12 11 10 11 12 10 10 11 11
11 11 11 11 11 11 11 11 11 12 12 12 13 13 12 12 13 13 11 9 9 12 12 10 10 11 11 11 10 11 12 13 12 12 13 14 15 14 13 12 12 14 14 13 13 13 13 12 11 12 16 17 16 15 15 15 18 20 19 18 16 15 14 14 13 11 12 13 14 14 14 13 12 12 13 12 11 11 10 11 12 12 12 13 12
11 11 10 11 11 11 11 11 11 12 12 12 13 14 13 12 12 11 10 10 11 12 11 9 9 11 12 11 9 9 11 13 12 12 13 14 15 15 13 13 14 14 14 14 13 14 14 13 11 12 16 17 16 15 14 13 14 17 17 17 16 14 15 15 14 13 13 13 13 13 11 10 9 9 9 9 9 10 11 11 12 13 14 15 15
10 10 10 10 11 11 11 11 11 12 13 13 13 13 13 13 12 10 9 10 10 10 10 9 10 11 12 11 10 9 10 12 12 13 13 14 15 15 15 14 15 14 14 14 14 14 14 13 12 13 15 15 13 11 10 9 10 11 12 13 13 14 15 15 15 15 14 12 11 9 8 7 8 9 8 6 6 8 11 12 13 15 15 17 18
9 10 10 10 11 11 11 11 11 12 13 13 13 13 12 12 11 9 8 9 9 9 10 10 10 11 11 11 11 10 11 13 12 12 14 15 15 16 16 16 16 15 14 13 13 13 14 14 13 14 13 11 9 7 6 6 7 8 9 11 12 13 13 13 13 13 11 9 8 8 8 9 9 9 8 6 6 9 12 13 14 15 16 17 18
9 10 10 10 11 12 11 11 11 12 13 13 13 12 13 13 11 8 8 8 9 9 10 10 11 11 11 11 12 13 13 12 12 12 14 15 15 16 17 17 17 16 15 14 13 14 14 14 14 13 11 8 7 6 5 6 8 10 11 12 12 9 8 7 7 6 7 7 8 9 11 10 9 9 9 9 10 11 12 14 15 16 16 17 18
10 10 10 11 11 11 12 12 13 13 14 13 12 10 11 11 10 8 7 8 8 9 10 10 11 11 11 12 13 13 13 12 12 13 15 16 16 17 17 17 17 16 15 14 14 14 14 13 12 11 10 8 7 6 6 7 9 9 10 10 9 6 5 5 4 5 7 9 10 12 12 8 7 9 11 11 10 8 9 13 15 14 14 16 18
10 10 11 11 11 12 12 13 14 14 14 15 13 11 10 10 8 6 6 7 8 9 10 11 11 11 12 13 13 13 14 13 12 14 17 18 19 18 18 17 17 16 15 14 15 15 14 14 13 12 10 10 10 10 9 9 9 7 6 6 6 5 5 5 6 7 9 9 10 11 9 6 8 9 9 8 7 5 8 13 14 11 12 14 16
10 11 11 12 12 12 12 13 14 15 15 14 13 11 11 11 8 6 6 7 8 9 10 11 11 11 12 13 13 14 14 13 13 16 19 20 20 20 19 18 17 16 15 17 18 17 15 13 11 9 8 8 8 8 7 7 7 6 5 4 4 5 6 7 8 9 9 8 8 8 7 6 7 7 5 4 5 5 8 13 13 11 12 12 12
10 11 11 12 12 12 12 13 13 14 14 15 14 11 10 10 9 6 7 7 7 9 10 10 10 11 12 12 12 13 13 14 16 19 20 20 20 19 19 18 17 17 18 19 20 17 13 11 9 8 7 7 6 6 6 6 5 5 5 5 4 4 5 5 6 7 6 5 6 7 6 5 5 4 4 5 5 5 7 11 13 12 12 10 9
11 11 12 12 12 12 12 12 13 13 12 14 16 15 13 11 8 6 8 10 8 6 7 8 10 10 11 12 11 12 13 14 17 20 20 20 19 18 18 18 18 18 19 19 17 14 12 11 10 9 8 7 7 7 6 6 5 5 4 3 3 3 4 4 5 6 5 5 6 5 4 4 4 4 4 5 5 5 7 11 13 12 10 9 9
11 12 12 12 12 12 12 13 13 13 11 11 12 14 16 16 12 8 10 13 10 5 5 8 10 10 10 11 12 12 13 15 17 19 19 19 19 18 17 17 17 17 18 16 14 11 10 9 9 8 8 8 7 7 6 6 6 5 4 3 3 3 4 5 5 4 4 4 5 5 4 4 4 4 4 5 6 6 7 9 11 9 8 9 10
11 11 12 12 12 12 12 13 13 13 12 12 10 9 11 14 15 14 14 16 13 8 7 10 12 11 9 9 11 12 14 16 17 18 18 19 18 17 17 17 17 16 15 12 10 9 9 8 8 8 8 8 8 8 7 7 6 5 5 4 5 4 4 4 5 5 5 4 4 4 4 3 4 4 5 5 6 7 8 8 8 8 9 9 10
10 10 11 12 12 12 13 13 13 12 12 13 12 9 7 8 12 16 18 18 17 13 9 11 14 13 10 9 10 11 14 15 16 16 18 18 17 17 17 16 14 14 12 9 8 8 8 8 8 8 8 8 8 8 8 8 8 7 5 5 5 4 4 6 7 7 5 5 5 4 3 3 3 4 5 6 6 7 8 8 8 8 8 9 10
9 10 10 11 12 12 13 13 13 12 12 12 12 11 9 9 10 12 13 15 17 16 13 14 16 16 13 11 11 11 13 14 14 15 16 17 18 18 17 13 10 10 9 8 8 9 9 9 9 8 8 8 8 8 8 8 8 7 6 5 5 4 4 5 6 4 3 4 4 3 2 3 3 4 6 6 6 7 8 8 8 8 8 9 10
9 9 10 11 12 12 13 12 12 13 13 12 11 11 13 13 11 9 8 9 11 13 15 17 18 17 15 13 13 13 14 14 14 14 15 16 18 18 14 10 9 10 9 8 9 9 8 8 8 8 8 7 7 8 8 8 7 7 6 5 5 4 3 3 3 3 3 3 2 2 3 4 4 4 5 6 7 7 8 8 8 8 9 9 10
9 10 11 11 12 12 12 12 12 12 11 11 12 12 12 11 9 9 9 7 7 9 11 15 19 19 15 13 15 17 15 14 15 15 14 15 16 14 11 9 9 10 10 9 9 9 8 8 8 7 7 7 7 7 7 7 8 7 6 6 5 4 3 2 2 3 3 2 2 3 5 4 4 4 5 6 7 8 8 8 9 9 10 10 11
9 10 11 11 12 12 12 12 12 12 11 11 12 12 11 9 8 8 7 6 8 9 9 12 17 17 13 12 17 21 19 18 16 15 15 16 15 12 10 9 9 9 8 9 9 9 9 8 8 7 7 7 7 7 7 7 8 8 7 7 6 5 5 5 4 4 3 2 2 3 5 4 4 5 7 7 7 8 8 8 9 11 12 13 12
9 9 10 11 12 12 12 13 13 12 12 11 9 9 11 11 9 7 6 6 9 10 9 9 12 12 10 14 20 22 20 17 14 13 15 16 13 11 10 10 9 8 8 9 10 11 10 9 9 9 8 7 7 8 8 8 8 8 9 8 6 6 6 5 4 3 3 2 2 3 4 4 3 5 7 7 7 8 10 10 11 12 12 11 11
9 9 10 11 11 12 12 12 13 13 13 12 10 10 11 11 9 8 8 8 8 8 8 8 8 8 10 17 22 21 17 13 10 12 14 14 12 12 12 11 9 9 10 11 11 11 11 11 10 10 9 8 8 8 8 8 9 9 9 8 7 6 5 4 3 2 2 3 3 3 4 4 5 6 8 8 8 9 11 12 13 13 11 11 13
10 10 10 10 11 12 12 12 12 12 13 12 12 11 11 10 10 10 11 10 8 7 7 8 8 9 13 18 19 18 16 13 11 12 13 13 13 13 12 11 11 12 13 12 12 12 12 12 12 11 10 9 9 8 9 9 9 9 8 7 7 6 5 5 4 4 5 6 6 5 6 6 8 9 8 6 8 12 13 14 14 14 14 16 18
11 11 11 11 11 12 12 12 12 12 12 12 12 12 11 12 13 12 12 12 11 9 9 8 9 12 16 17 15 15 15 13 13 13 14 13 13 13 13 12 12 13 14 14 14 14 14 14 13 12 10 9 9 9 9 9 9 9 8 8 7 6 6 5 5 7 9 9 8 8 8 8 9 10 9 8 10 13 13 14 15 15 17 18 18
11 12 12 12 12 12 12 12 12 12 12 12 12 11 11 13 13 13 13 14 13 12 12 11 10 13 18 18 15 15 14 13 13 14 14 14 14 14 13 13 13 14 15 15 15 15 16 16 15 13 11 11 11 11 11 10 10 10 9 8 8 8 7 6 6 9 11 10 10 10 11 11 11 11 10 11 12 13 13 14 16 17 18 18 17
12 12 13 13 13 13 12 13 13 13 13 13 13 12 12 13 13 13 13 14 14 14 14 13 12 15 19 19 17 16 15 14 14 14 15 15 15 14 13 13 13 15 16 15 14 15 15 15 15 14 13 13 13 13 13 12 11 11 10 9 8 8 8 7 7 8 9 10 9 10 12 12 11 10 10 11 13 14 15 16 17 18 18 17 15
14 14 14 14 14 13 13 13 13 13 13 13 13 13 13 13 13 12 13 13 14 14 14 13 14 17 19 19 18 18 16 16 16 15 15 16 15 14 14 14 15 16 16 15 15 15 15 16 16 16 15 14 14 14 14 13 12 12 11 9 9 9 8 8 8 9 10 10 10 10 11 11 10 10 11 12 13 14 15 17 18 19 18 15 12
15 16 16 16 15 15 14 13 13 13 13 13 14 14 13 12 12 12 13 13 14 15 15 14 15 17 18 17 18 18 17 17 17 17 16 16 15 15 14 15 15 16 16 16 17 17 16 16 17 17 17 16 14 13 13 12 11 11 11 10 10 10 9 9 9 10 10 9 9 9 10 9 10 11 12 12 13 15 16 18 19 18 16 13 13
17 17 17 17 16 16 15 15 14 14 14 13 14 14 13 11 11 13 14 14 14 15 16 15 15 16 17 17 18 18 18 18 18 17 17 17 16 15 15 15 16 17 17 18 18 17 16 16 16 16 16 16 14 13 12 11 11 11 10 10 9 9 9 9 8 8 7 7 7 8 9 10 10 11 12 12 14 15 17 19 19 18 16 17 19
18 17 17 17 17 16 16 15 15 14 14 14 14 14 14 13 13 13 14 14 14 15 16 16 15 16 16 17 18 18 19 19 18 18 18 17 17 16 16 16 17 18 18 18 17 16 15 15 14 14 15 14 13 12 11 10 10 10 9 9 9 9 8 8 7 7 7 7 7 8 9 10 11 12 13 14 15 17 18 20 19 18 18 20 22
19 18 17 17 17 17 16 16 15 15 15 14 15 15 15 14 14 14 14 14 14 15 15 16 16 16 17 17 18 18 18 18 18 18 18 18 17 17 17 18 18 18 18 18 17 15 14 14 14 14 14 13 13 12 11 10 9 9 8 8 8 7 7 7 7 7 7 7 8 9 10 11 12 13 13 15 16 17 19 20 20 20 21 22 23
19 18 17 17 17 16 16 16 16 15 15 15 16 16 15 15 15 14 14 15 15 15 15 15 16 17 17 17 18 18 18 18 18 18 18 18 18 18 18 19 18 18 17 17 16 15 14 14 14 14 13 13 12 11 10 9 9 8 7 7 7 7 7 7 7 8 8 9 9 10 11 12 12 13 14 16 17 18 19 21 22 23 24 24 24
19 18 18 17 17 16 16 15 15 15 15 15 16 16 15 15 15 15 15 16 16 15 15 16 16 17 17 17 17 18 18 18 18 18 19 19 19 19 19 19 19 18 18 17 16 16 15 14 14 13 12 12 11 10 10 9 8 8 7 7 7 7 7 7 8 9 9 10 10 11 11 12 13 14 15 17 18 19 21 22 23 24 24 25 25
19 18 18 17 17 16 15 15 15 15 15 15 15 16 16 16 16 16 16 17 17 16 16 17 17 16 16 17 17 17 17 17 18 18 19 19 19 19 19 19 19 19 18 17 16 16 15 14 13 13 12 11 10 10 9 9 8 8 8 8 8 8 8 8 9 10 10 11 11 12 12 13 14 15 17 18 19 21 22 23 23 24 24 24 23
Wind_Direction
283 290 294 297 301 304 307 309 311 312 311 310 308 308 307 306 304 302 300 301 301 300 299 299 297 295 294 293 293 293 292 291 289 287 284 282 280 278 276 275 274 271 271 270 268 267 266 266 267 267 267 266 265 264 265 265 261 255 251 250 251 246 243 246 257 271 278 283 293 294 302 319 327 323 326 334 339 342 344 343 343 345 346 347 346
283 290 295 300 305 309 312 314 314 313 312 311 311 310 309 307 305 303 301 301 300 298 298 298 298 296 294 293 293 293 293 292 290 287 285 284 282 280 277 276 274 273 272 270 270 269 267 266 265 266 266 265 264 263 264 265 261 255 252 250 251 248 246 248 257 272 278 279 290 293 297 314 321 315 322 329 333 336 339 341 343 344 345 347 346
284 291 298 303 309 313 314 314 313 313 314 313 313 312 309 308 306 305 304 303 302 302 301 300 299 297 295 294 294 294 295 293 291 288 286 285 283 281 279 277 275 274 273 272 271 269 268 268 266 265 266 266 266 265 264 264 260 257 256 254 252 253 254 254 254 265 279 282 286 291 296 307 311 310 319 325 328 332 335 337 339 338 340 347 348
284 291 299 306 311 314 315 317 317 317 317 316 314 312 311 310 309 308 307 306 306 307 306 305 302 299 298 297 296 296 295 294 291 289 287 286 284 282 280 278 276 276 274 273 272 270 269 269 268 267 266 265 266 266 264 263 261 258 259 259 258 259 259 257 253 259 274 280 282 288 295 300 299 303 315 323 326 328 330 332 334 334 337 346 350
289 295 302 308 314 319 323 325 326 325 323 322 320 319 318 317 315 313 311 310 311 311 310 308 306 304 302 301 299 296 295 294 292 290 289 288 286 284 282 280 278 277 276 274 272 271 270 269 269 268 266 265 265 264 263 263 261 258 259 259 259 262 263 261 258 258 263 271 280 288 291 294 296 298 310 322 327 325 326 330 332 335 338 342 347
295 301 310 317 323 329 333 334 334 333 332 330 330 329 326 323 320 319 316 314 315 314 312 310 308 306 304 303 300 297 295 294 292 291 291 290 288 287 284 282 280 278 277 275 273 271 270 269 268 267 265 265 264 263 263 263 261 259 259 258 259 262 264 262 261 260 262 267 276 283 284 288 295 295 303 321 326 320 322 330 332 334 337 337 341
305 312 320 327 333 337 340 340 340 339 338 337 336 334 330 325 322 320 318 315 314 313 312 310 307 306 306 305 303 300 296 293 292 292 293 292 290 288 286 284 282 280 278 276 274 272 270 269 268 266 265 264 263 263 263 262 261 259 259 260 260 261 262 261 263 264 263 266 271 274 276 283 289 288 301 320 321 308 322 334 328 325 331 331 333
312 321 328 333 339 343 344 343 341 340 338 338 336 333 329 325 322 320 318 316 315 314 313 311 309 308 308 306 304 301 297 294 293 293 294 294 292 290 288 286 284 281 280 278 276 273 271 269 268 267 266 264 262 262 260 260 260 259 260 260 258 258 257 254 259 261 259 264 270 271 274 280 284 290 306 322 320 311 325 329 317 314 321 323 323
319 326 333 338 343 345 344 342 339 337 337 337 335 332 328 325 323 321 319 317 316 315 313 312 311 310 310 308 305 301 297 294 293 293 294 294 293 291 290 288 285 283 280 279 277 274 272 272 271 270 268 265 262 260 259 259 257 256 258 259 257 255 254 252 255 259 260 266 268 270 276 278 285 308 317 324 324 317 319 318 312 313 318 321 316
325 331 335 338 341 341 339 338 337 336 338 339 337 334 331 329 327 324 322 320 318 317 316 315 315 314 314 312 308 304 299 296 296 294 292 292 292 292 291 291 289 286 284 281 278 276 274 274 275 274 270 267 263 260 259 259 258 255 254 256 255 252 252 255 257 257 262 269 271 274 279 279 290 316 315 316 319 316 317 318 314 317 323 327 324
325 331 334 335 337 337 335 335 336 338 339 339 339 337 336 335 333 330 329 327 325 324 322 321 320 320 319 317 314 310 306 305 303 297 293 292 289 285 286 289 290 288 286 284 280 278 277 274 275 276 275 272 268 264 260 257 257 257 256 256 254 251 250 253 257 262 266 268 269 270 272 278 290 306 309 317 323 319 318 316 313 319 327 326 322
327 333 334 335 338 337 336 335 335 338 339 339 340 339 338 337 336 335 332 331 329 328 326 326 325 325 324 322 320 317 315 314 312 304 296 291 284 278 279 283 284 284 285 285 282 281 279 276 275 275 276 275 271 266 262 259 257 257 257 257 255 251 251 253 256 261 265 268 273 272 270 278 289 295 305 318 320 316 312 310 309 313 315 310 306
334 338 338 339 341 339 338 337 336 338 340 340 341 341 340 340 339 337 335 333 331 330 331 330 328 328 328 326 324 322 322 323 319 312 303 295 286 278 277 279 280 280 282 284 283 281 279 277 276 276 275 271 267 265 262 260 259 257 255 254 254 252 252 254 257 259 260 264 269 269 270 278 282 284 302 313 311 309 305 306 309 308 304 298 295
339 342 343 343 342 341 340 339 338 340 341 341 342 344 344 343 342 341 339 337 334 333 334 331 329 329 329 328 326 324 326 328 325 319 311 301 292 284 279 278 277 277 279 281 282 281 280 278 277 278 278 271 264 263 262 260 257 256 254 253 255 254 252 252 255 257 257 258 262 268 274 276 276 283 301 308 301 293 292 299 301 298 297 295 296
347 347 348 346 344 343 343 342 342 342 343 343 343 345 346 344 344 344 341 339 336 331 329 328 327 329 329 328 326 323 327 331 329 322 314 306 299 292 285 279 275 275 276 278 280 281 282 281 277 277 279 276 269 264 261 259 255 254 255 257 259 258 255 255 257 258 259 258 260 266 271 274 282 295 308 312 300 288 288 294 297 297 299 300 302
351 351 350 348 347 346 346 344 344 345 345 343 342 344 344 343 343 341 337 339 339 332 328 328 328 327 329 330 326 321 325 331 328 322 317 311 306 300 292 284 278 275 274 277 282 284 283 282 280 278 278 278 275 268 260 255 251 250 253 257 261 260 261 264 262 260 261 258 258 264 271 278 283 284 287 292 288 287 290 294 298 301 302 302 302
354 355 353 351 350 349 347 345 344 345 344 340 337 340 341 338 337 336 334 337 339 335 332 331 329 330 330 331 329 320 320 327 328 325 324 320 315 307 298 291 285 281 278 277 281 285 286 286 284 282 281 280 279 274 262 252 246 247 250 254 258 262 268 272 269 262 257 253 254 260 263 261 255 251 261 272 277 283 288 286 289 297 300 300 298
358 358 355 353 350 348 347 345 344 343 338 332 330 334 336 332 330 332 333 333 332 330 327 324 326 330 329 331 332 323 319 328 334 333 331 329 326 317 307 298 292 289 288 283 280 281 287 293 291 286 285 286 284 279 267 252 243 244 249 251 254 261 270 276 276 266 252 244 243 245 245 245 247 254 267 276 276 278 278 274 279 287 290 291 292
360 357 354 352 349 347 347 346 345 341 335 328 326 329 331 329 328 331 333 329 323 322 323 320 322 328 328 330 334 330 327 333 339 339 336 334 333 327 316 306 298 296 295 292 289 283 284 293 298 296 294 294 291 284 271 254 243 244 247 245 249 260 270 279 283 270 250 243 243 242 242 245 251 264 276 279 276 275 274 273 277 277 278 285 290
358 356 352 350 348 348 348 347 345 342 337 332 329 330 332 330 330 334 333 328 321 320 323 322 321 325 325 326 331 335 334 334 335 337 339 338 338 334 323 313 308 305 302 298 296 293 286 287 296 303 306 304 298 291 277 255 243 245 245 237 244 261 275 284 285 269 247 242 244 246 249 251 258 274 286 282 275 275 275 275 276 272 271 279 282
356 354 351 349 348 348 348 346 343 340 338 335 333 335 337 333 333 336 333 326 323 326 329 327 321 322 323 323 327 334 339 337 333 336 339 339 341 341 332 323 318 313 309 303 298 298 296 290 290 301 309 309 304 299 289 262 242 241 244 245 254 268 278 282 281 269 251 246 247 250 254 258 265 278 286 280 271 273 277 278 281 278 272 273 274
356 353 350 350 350 348 346 345 341 338 339 338 337 337 337 334 334 336 330 324 325 326 327 327 320 319 322 324 325 332 340 342 337 336 339 339 340 342 336 330 327 322 315 310 304 301 300 299 298 300 305 307 306 302 294 271 243 236 245 258 269 276 277 274 271 266 260 255 249 248 251 257 265 274 276 267 258 269 281 286 287 286 282 277 272
356 354 352 352 351 349 348 345 343 344 344 343 341 339 336 334 335 336 328 325 326 323 321 322 321 320 322 325 326 331 338 341 338 336 337 337 337 337 334 331 330 328 320 313 309 306 304 303 305 307 307 307 304 297 289 271 248 241 248 259 268 272 269 260 253 254 258 254 246 247 254 258 266 275 272 253 239 265 285 291 292 292 289 285 280
358 358 356 355 353 352 351 349 351 352 350 350 350 346 343 341 341 339 334 330 328 326 324 323 323 322 324 325 326 329 333 335 335 336 337 338 336 335 333 331 328 326 321 314 311 312 311 307 308 312 314 311 301 290 279 262 251 252 256 262 269 271 264 253 247 248 250 246 244 253 261 264 272 279 270 250 255 279 290 295 297 296 293 290 289
2 2 360 358 356 354 352 354 357 358 357 359 359 354 352 353 348 341 338 336 332 329 326 326 325 324 324 325 325 327 331 331 332 336 339 340 339 336 334 330 326 323 319 312 310 312 313 313 311 309 310 306 294 285 273 262 260 265 269 272 275 271 258 253 250 242 245 253 256 264 271 273 274 273 263 261 274 288 296 302 304 305 304 301 298
7 6 2 0 359 356 355 356 359 359 1 5 5 359 355 354 347 339 338 337 333 330 326 325 326 324 324 324 323 325 328 330 332 338 341 341 339 336 334 332 328 324 317 311 311 312 314 317 315 308 300 292 283 278 275 275 278 283 283 278 273 264 253 256 257 254 262 268 268 272 276 273 269 271 270 272 281 287 296 306 309 308 307 309 309
10 8 5 2 1 360 359 359 358 357 359 3 5 4 360 353 340 332 339 339 332 332 330 328 328 327 325 324 324 325 328 331 335 339 341 340 337 335 334 332 331 329 324 319 318 314 311 312 313 308 301 292 285 281 280 281 283 284 282 276 269 262 262 266 268 268 271 272 273 275 276 271 275 280 276 274 279 279 293 307 311 307 305 309 309
11 8 5 3 2 2 2 1 359 357 356 357 359 0 1 358 345 329 339 344 333 330 329 326 327 329 324 322 325 326 326 331 336 338 338 336 334 333 332 331 332 331 328 326 324 317 308 304 304 302 298 292 287 283 279 278 276 271 270 271 266 263 269 276 278 276 274 272 273 275 274 272 277 278 268 268 276 276 296 311 313 307 308 310 302
10 8 6 3 2 2 0 359 358 356 354 354 354 352 354 360 357 345 347 347 328 323 328 327 327 328 322 319 323 325 323 325 329 331 331 331 331 331 330 329 329 326 323 323 322 316 311 307 304 300 298 294 290 288 284 280 278 274 272 270 261 259 266 273 278 279 274 269 270 272 272 272 270 262 257 272 279 277 295 312 315 311 310 305 289
8 8 6 3 1 359 355 353 354 352 350 350 352 352 352 357 359 353 354 352 334 313 321 329 329 330 325 318 318 320 318 318 322 326 328 329 330 329 328 328 328 326 324 324 319 310 307 310 309 307 307 304 301 300 299 298 297 293 286 273 257 253 258 262 270 275 273 270 273 273 270 270 269 265 268 282 292 291 295 309 315 312 305 296 288
5 5 4 360 358 355 351 348 349 349 347 345 347 348 348 350 350 344 348 354 349 329 318 327 327 326 326 323 322 321 319 320 324 327 328 328 330 330 331 331 331 330 331 329 321 310 309 312 313 313 314 310 308 308 307 307 307 305 302 294 273 262 265 269 271 275 274 274 275 273 271 271 272 276 283 291 297 298 296 303 309 306 295 291 291
1 359 358 355 354 352 348 346 345 345 346 345 342 338 338 341 342 339 340 348 352 348 344 345 341 334 324 324 328 326 323 324 327 329 331 333 333 333 333 333 333 335 338 337 329 324 325 324 322 327 329 323 320 318 315 312 310 306 303 298 289 278 270 268 274 281 283 281 281 278 275 275 276 283 290 291 294 300 300 298 298 296 294 293 291
355 353 352 351 351 349 346 344 343 341 341 341 340 337 329 327 332 333 336 344 350 349 345 349 352 349 338 330 333 331 327 327 329 332 335 337 336 336 336 334 336 343 352 355 350 345 344 339 335 338 340 335 331 329 324 316 311 306 298 291 288 284 277 277 284 288 286 283 288 286 276 281 291 293 294 293 292 299 303 301 299 297 296 298 301
347 348 347 347 348 347 345 343 340 338 337 336 335 333 330 326 323 322 327 338 344 343 338 340 349 354 349 341 339 339 335 335 335 336 338 338 337 338 338 337 340 351 0 4 360 356 354 351 347 346 344 343 342 339 332 322 314 307 301 295 289 283 284 288 289 288 279 280 287 286 285 299 304 300 301 304 303 303 306 305 303 302 303 305 307
340 342 345 347 348 347 345 342 337 335 334 334 330 326 327 329 326 320 319 324 328 330 330 333 342 351 353 350 348 346 342 340 341 343 342 337 335 339 344 347 351 355 359 1 360 357 355 353 351 348 346 346 347 345 339 331 321 313 308 307 304 293 288 290 283 271 272 275 276 293 306 308 305 302 303 303 302 302 304 304 302 301 303 305 307
340 341 346 348 348 346 344 341 337 333 330 329 327 326 326 326 324 322 321 317 313 315 319 327 338 347 352 352 349 348 346 345 348 350 347 341 340 345 352 355 352 350 352 356 356 352 349 349 348 346 344 345 346 347 346 341 335 328 319 312 309 303 294 293 283 272 273 265 267 306 313 308 304 309 309 302 298 299 299 300 302 303 304 306 307
339 340 343 344 344 344 343 341 339 336 332 330 329 329 329 328 325 323 319 315 319 320 316 324 337 343 345 344 344 347 350 353 355 355 354 353 355 358 358 354 349 346 348 350 349 346 343 342 342 340 337 338 340 340 342 344 344 343 336 324 313 305 297 293 287 276 271 268 284 309 314 308 306 315 314 306 302 303 301 302 305 305 309 313 310
335 336 337 338 340 341 341 340 341 339 336 333 330 329 332 332 329 323 315 314 322 323 317 323 334 336 334 338 342 346 349 351 351 351 353 356 359 358 354 350 347 344 343 344 343 342 338 334 335 335 331 330 333 333 335 339 341 343 346 343 333 322 313 308 302 290 286 295 300 306 315 314 311 316 316 308 302 304 306 310 312 310 311 314 309
333 333 333 334 336 339 338 337 338 339 338 334 331 330 333 333 329 325 322 320 320 319 316 321 327 327 332 338 342 345 344 342 342 345 347 349 351 350 347 344 342 340 339 338 337 338 335 331 330 330 327 326 329 330 331 334 333 335 339 341 341 343 344 342 344 340 327 318 312 312 319 318 314 316 315 310 307 309 311 313 316 314 310 308 308
331 331 332 333 333 335 336 335 337 338 337 334 332 330 330 329 329 329 328 326 322 317 316 318 321 329 338 342 343 342 338 333 332 337 338 339 342 344 342 339 336 336 338 337 334 334 333 330 328 327 324 324 325 326 328 330 329 328 328 329 329 334 336 337 338 335 325 319 317 317 316 315 316 318 315 308 310 316 318 318 318 317 315 313 314
329 328 329 331 330 331 333 334 335 336 333 331 330 329 327 328 331 329 328 328 325 321 320 319 320 332 340 343 340 335 330 326 326 331 333 333 335 337 337 335 334 334 335 334 332 332 331 330 329 326 322 321 322 322 323 325 325 323 322 320 317 315 316 320 322 319 316 315 316 315 313 312 315 317 315 312 317 319 319 318 318 319 319 317 315
326 324 325 327 327 328 330 330 329 331 332 331 330 328 325 327 328 327 327 328 327 325 325 324 323 332 341 345 342 337 333 329 329 332 333 333 332 334 334 333 332 331 331 330 329 329 329 329 329 327 323 321 322 323 323 323 323 321 318 316 314 314 314 314 313 313 315 315 313 311 312 314 316 316 316 318 321 321 319 320 322 322 320 318 316
324 322 322 324 324 324 326 325 324 327 330 329 329 327 326 326 326 325 325 327 328 329 329 327 328 333 340 346 349 347 343 338 335 334 335 335 335 336 335 331 330 332 332 331 329 328 327 327 327 326 324 322 322 324 325 326 325 325 321 315 313 313 313 313 313 315 316 315 312 312 316 319 320 318 318 320 323 323 323 325 325 323 320 317 314
325 322 321 321 322 322 323 322 321 323 324 325 326 327 328 326 325 325 325 326 328 330 329 328 331 335 338 344 348 349 347 343 340 338 339 339 339 338 335 334 334 335 334 334 332 329 326 326 326 325 324 324 323 324 326 328 330 330 327 320 316 314 312 312 313 312 313 313 313 314 317 319 320 321 323 325 326 327 327 325 323 321 319 316 310
324 321 320 320 320 321 322 322 320 319 322 324 325 326 327 325 324 326 328 327 328 330 330 330 333 336 338 341 344 346 345 345 343 342 342 340 339 337 335 334 333 333 333 335 335 331 326 325 324 323 325 327 327 327 328 330 331 331 329 326 324 321 317 315 314 313 312 312 313 316 318 318 320 324 324 325 326 325 323 323 322 320 317 313 309
321 319 318 318 318 319 320 321 319 319 320 321 322 323 324 322 321 325 329 330 329 330 331 332 333 334 336 339 342 343 345 345 345 343 343 341 340 337 335 333 333 334 335 336 337 336 333 331 329 327 328 329 331 332 332 332 333 333 333 333 333 331 329 328 327 325 323 321 318 319 319 318 321 324 326 326 327 325 323 323 323 320 316 313 313
321 318 317 317 316 316 318 319 319 319 319 318 318 320 321 320 320 322 326 328 330 331 332 332 333 335 337 339 341 343 344 345 344 344 344 344 342 339 337 336 336 337 337 338 340 341 340 338 335 333 332 333 334 336 337 338 339 339 339 339 338 337 339 340 340 339 336 330 324 320 319 320 324 327 328 328 327 325 323 324 323 319 315 313 314
322 320 318 317 315 316 317 318 318 317 317 316 316 317 317 318 320 321 322 324 328 331 331 332 333 335 337 339 341 342 343 344 344 345 345 344 343 341 340 340 340 340 339 341 343 344 342 340 338 336 335 337 339 342 345 346 347 346 346 343 339 337 339 343 342 340 335 329 325 324 323 324 326 326 326 326 325 323 322 322 322 320 318 316 315
321 320 319 317 316 316 317 316 315 315 315 314 314 315 316 317 318 318 319 322 326 328 330 331 334 336 337 339 341 342 342 343 344 344 344 345 345 344 343 343 343 342 342 343 345 346 345 342 341 339 340 342 345 347 348 349 349 349 348 344 339 338 342 342 339 335 333 330 329 329 327 326 326 325 324 325 325 324 324 323 322 321 319 317 316
318 318 318 317 317 317 316 315 314 315 314 314 313 314 315 316 316 316 318 321 324 327 329 330 332 335 336 338 339 340 341 341 342 343 344 345 346 345 344 344 344 344 344 345 347 347 347 346 345 344 345 347 349 350 350 350 350 349 345 342 341 341 341 339 335 333 332 331 330 328 326 324 324 323 323 325 326 326 325 324 321 320 318 317 317
315 317 316 316 317 317 316 315 315 315 315 315 314 313 313 314 314 315 317 320 323 326 328 330 332 333 335 337 338 339 339 341 342 343 344 345 345 345 345 345 345 344 345 346 348 349 349 349 348 347 348 349 351 353 353 352 349 345 342 342 343 341 338 336 335 333 331 330 329 327 325 323 322 323 325 327 327 325 324 322 321 320 319 318 318